This is the latest recevied weather packets stored in our database for station/object KE8WMS. If no packets are shown the sender has not sent any weather packets the latest 10 day(s).
| Time | Temp. | Humidity | Pressure | Rain* | Wind** | Luminosity | Snow |
|---|---|---|---|---|---|---|---|
| 1787945199 | 22.78° C | 71% | 1017.6 hPa | 0 mm | - | 586 W/m² | - |
| 1787944898 | 22.78° C | 71% | 1017.6 hPa | 0 mm | - | 596 W/m² | - |
| 1787944596 | 22.22° C | 71% | 1017.6 hPa | 0 mm | - | 605 W/m² | - |
| 1787944292 | 22.22° C | 70% | 1017.7 hPa | 0 mm | - | 618 W/m² | - |
| 1787943987 | 22.78° C | 71% | 1017.7 hPa | 0 mm | - | 624 W/m² | - |
| 1787943684 | 22.78° C | 71% | 1017.8 hPa | 0 mm | - | 631 W/m² | - |
| 1787943384 | 22.78° C | 67% | 1017.7 hPa | 0 mm | - | 639 W/m² | - |
| 1787943078 | 23.33° C | 67% | 1017.7 hPa | 0 mm | - | 647 W/m² | - |
| 1787942774 | 22.78° C | 69% | 1017.8 hPa | 0 mm | - | 653 W/m² | - |
| 1787942473 | 22.78° C | 64% | 1017.6 hPa | 0 mm | - | 660 W/m² | - |
| 1787942168 | 22.78° C | 64% | 1017.5 hPa | 0 mm | - | 666 W/m² | - |
| 1787941864 | 22.78° C | 68% | 1017.6 hPa | 0 mm | - | 671 W/m² | - |
| 1787941563 | 22.78° C | 67% | 1017.3 hPa | 0 mm | - | 677 W/m² | - |
| 1787941258 | 22.78° C | 65% | 1017.7 hPa | 0 mm | - | 681 W/m² | - |
| 1787940957 | 22.78° C | 67% | 1017.3 hPa | 0 mm | - | 686 W/m² | - |
| 1787940656 | 22.22° C | 66% | 1017.7 hPa | 0 mm | - | 689 W/m² | - |
| 1787940355 | 22.78° C | 67% | 1017.8 hPa | 0 mm | - | 693 W/m² | - |
| 1787940054 | 22.78° C | 69% | 1017.3 hPa | 0 mm | - | 696 W/m² | - |
| 1787939754 | 22.78° C | 67% | 1017.5 hPa | 0 mm | - | 700 W/m² | - |
| 1787939449 | 22.78° C | 69% | 1017.3 hPa | 0 mm | - | 702 W/m² | - |
| 1787939144 | 22.78° C | 66% | 1017 hPa | 0 mm | - | 705 W/m² | - |
| 1787938844 | 22.22° C | 68% | 1017.2 hPa | 0 mm | - | 708 W/m² | - |
| 1787938543 | 22.22° C | 69% | 1017.3 hPa | 0 mm | - | 709 W/m² | - |
| 1787938239 | 22.22° C | 72% | 1017.5 hPa | 0 mm | - | 708 W/m² | - |
| 1787937934 | 22.22° C | 70% | 1017.3 hPa | 0 mm | - | 711 W/m² | - |
* Rain latest hour (hover to see other rain measurements)
** Current wind speed in m/s (hover to see current wind gust speed)